www.pogodaiklimat.ru

Погода и климат >> Архив погоды >> Швеция >> Вадероарна


ПОГОДА на Вадероарна

  • Прогноз погоды на Вадероарна
  • Монитор погоды на Вадероарна

АРХИВ ПОГОДЫ на Вадероарна

Время (UTC), дата Ветер
(напр.,м/с)
 
Видим.   Явления Облачность Т
(С)
Тd
(С)
f
(%)
Тe
(С)
Тes
(С)
Комфортность P
(гПа)
Po
(гПа)
Тmin
(С)
Tmax
(С)
R
(мм)
R24
(мм)
S
(см)
01 11.07 З 6
{8}
н/о н/о +15.4 +13.3 87 +14 +14 1012.3 1009.5
02 11.07 З 5
{7}
н/о н/о +15.2 +13.8 91 +14 +14 1012.0 1009.2
03 11.07 З 4
{6}
н/о н/о +15.1 +13.3 89 +14 +14 1012.0 1009.2
04 11.07 З 4
{5}
н/о н/о +15.3 +14.0 92 +14 +14 1011.9 1009.1
05 11.07 ЮЗ 4
{5}
н/о н/о +15.4 +13.4 88 +14 +14 1011.9 1009.1
06 11.07 ЮЗ 4
{5}
н/о н/о +15.3 +13.3 88 +14 +14 1011.9 1009.1 +15.0 +17.5
07 11.07 ЮЗ 4
{6}
н/о н/о +15.1 +13.5 90 +14 +14 1012.1 1009.3
08 11.07 ЮЗ 3
{6}
н/о н/о +15.5 +13.0 85 +15 +15 1012.3 1009.5
09 11.07 ЮЗ 4
{5}
н/о н/о +15.4 +12.8 84 +14 +14 1012.4 1009.6
10 11.07 ЮЗ 4
{5}
н/о н/о +15.9 +13.1 83 +15 +15 1012.3 1009.6
11 11.07 ЮЗ 5
{5}
н/о н/о +15.6 +12.6 82 +14 +14 1012.3 1009.5
12 11.07 ЮЗ 5
{6}
н/о н/о +15.8 +12.8 82 +15 +15 1012.0 1009.2
13 11.07 ЮЗ 4
{5}
н/о н/о +16.2 +13.0 81 +15 +15 1012.0 1009.2
14 11.07 ЮЗ 4
{5}
н/о н/о +16.2 +12.5 79 +15 +15 1011.8 1009.0
15 11.07 ЮЗ 3
{5}
н/о н/о +16.1 +12.3 78 +16 +16 1011.7 1009.0
16 11.07 ЮЗ 2
{4}
н/о н/о +16.3 +13.0 81 +16 +16 1011.5 1008.7
17 11.07 ЮЗ 3
{4}
н/о н/о +16.4 +13.0 80 +16 +16 1011.2 1008.4
18 11.07 З 1
{4}
н/о н/о +16.7 +12.7 77 +18 +18 1011.2 1008.4 +15.0 +16.9
19 11.07 Ю 1
{2}
н/о н/о +15.7 +12.6 82 +16 +16 1011.0 1008.2
20 11.07 Ю 2
{2}
н/о н/о +15.7 +12.6 82 +16 +16 1011.0 1008.2
21 11.07 Ю 1
{3}
н/о н/о +15.8 +12.4 80 +16 +16 1011.0 1008.2
22 11.07 Ю 1
{2}
н/о н/о +15.9 +12.4 80 +17 +17 1011.2 1008.4
23 11.07 Ю 2
{3}
н/о н/о +15.9 +12.6 81 +16 +16 1010.9 1008.1
00 12.07 Ю 1
{2}
н/о н/о +15.9 +12.5 80 +17 +17 1010.8 1008.0
01 12.07 Ю 1
{2}
н/о н/о +15.9 +10.5 70 +17 +17 1010.8 1008.0
02 12.07 ЮВ 1
{1}
н/о н/о +15.6 +13.0 85 +16 +16 1010.7 1007.9
03 12.07 ЮВ 2
{2}
н/о н/о +15.3 +13.1 87 +15 +15 1010.6 1007.8
04 12.07 В 2
{3}
н/о н/о +15.7 +12.3 80 +16 +16 1010.7 1007.9
05 12.07 В 2
{2}
н/о н/о +15.9 +13.0 83 +16 +16 1010.8 1008.0
06 12.07 ЮВ 2
{3}
н/о н/о +16.7 +12.6 77 +17 +17 1011.0 1008.2 +15.1 +16.7
07 12.07 ЮВ 2 н/о н/о +17.2 +10.8 66 +18 +18 1011.0 1008.2
08 12.07 ЮВ 1
{3}
н/о н/о +17.9 +10.4 61 +19 +19 1011.2 1008.4
09 12.07 ЮЗ 1
{2}
н/о н/о +18.7 +8.7 52 +20 +20 1011.2 1008.4
10 12.07 З 2
{3}
н/о н/о +19.1 +9.9 55 +20 +20 1011.2 1008.4
11 12.07 З 3
{4}
н/о н/о +18.4 +12.5 68 +19 +19 1011.2 1008.4
12 12.07 З 3
{4}
н/о н/о +18.6 +12.3 67 +19 +19 1011.1 1008.4
13 12.07 З 3
{4}
н/о н/о +18.8 +12.6 67 +20 +20 1010.9 1008.2
14 12.07 З 3
{4}
н/о н/о +18.8 +13.7 72 +20 +20 1010.8 1008.0
15 12.07 З 3
{4}
н/о н/о +18.5 +13.6 73 +19 +19 1010.5 1007.7
16 12.07 З 3
{4}
н/о н/о +18.5 +13.4 72 +19 +19 1010.3 1007.5
17 12.07 З 3
{4}
н/о н/о +18.3 +14.4 78 +19 +19 1010.3 1007.5
18 12.07 З 3
{4}
н/о н/о +18.1 +14.8 81 +18 +18 1010.3 1007.5 +16.4 +19.2
19 12.07 З 2
{3}
н/о н/о +17.9 +15.4 85 +18 +18 1010.6 1007.8
20 12.07 ЮЗ 2
{3}
н/о н/о +17.3 +15.3 88 +18 +18 1010.6 1007.8
21 12.07 ЮЗ 4
{5}
н/о н/о +17.0 +15.4 90 +17 +17 1010.7 1008.0
22 12.07 ЮЗ 3
{5}
н/о н/о +17.0 +15.7 92 +17 +17 1010.8 1008.1
23 12.07 Ю 2
{3}
н/о н/о +17.1 +15.7 91 +17 +17 1011.2 1008.4
00 13.07 Ю 2
{4}
н/о н/о +16.8 +15.6 93 +17 +17 1010.8 1008.0
01 13.07 Ю 4
{4}
н/о н/о +16.6 +15.7 94 +16 +16 1010.5 1007.8
02 13.07 Ю 3
{4}
н/о н/о +16.5 +15.5 94 +16 +16 1010.3 1007.5
03 13.07 Ю 4
{5}
н/о н/о +16.4 +15.5 94 +16 +16 1010.2 1007.4
04 13.07 Ю 4
{5}
н/о н/о +16.7 +15.1 90 +16 +16 1010.5 1007.7
05 13.07 Ю 5
{5}
н/о н/о +16.8 +15.1 90 +16 +16 1010.6 1007.8
06 13.07 Ю 5
{5}
н/о н/о +17.2 +15.0 87 +17 +17 1010.8 1008.0 +16.3 +18.1
07 13.07 Ю 5
{6}
н/о н/о +17.0 +15.2 89 +16 +16 1011.1 1008.3
08 13.07 Ю 6
{6}
н/о н/о +17.0 +15.1 89 +16 +16 1011.4 1008.6
09 13.07 Ю 5
{7}
н/о н/о +17.0 +14.6 86 +16 +16 1011.5 1008.7
10 13.07 Ю 5
{6}
н/о н/о +17.1 +14.5 85 +16 +16 1011.7 1009.0
11 13.07 Ю 5
{7}
н/о н/о +17.3 +14.6 84 +17 +17 1011.9 1009.1
12 13.07 Ю 6
{9}
н/о н/о +17.1 +14.5 85 +16 +16 1011.7 1008.9
13 13.07 ЮЗ 6
{9}
н/о н/о +16.8 +14.7 87 +16 +16 1012.0 1009.2
14 13.07 ЮЗ 4
{7}
н/о н/о +16.2 +13.7 85 +15 +15 1012.1 1009.3
15 13.07 ЮЗ 4
{6}
н/о н/о +16.3 +13.3 82 +16 +16 1012.1 1009.3
16 13.07 ЮЗ 7
{9}
н/о н/о +15.8 +13.4 86 +14 +14 1011.9 1009.1
17 13.07 ЮЗ 6
{9}
н/о н/о +15.7 +13.8 88 +14 +14 1011.7 1008.9
18 13.07 З 3
{7}
н/о н/о +15.9 +13.6 86 +15 +15 1011.9 1009.1 +15.5 +17.6
19 13.07 Ю 2
{5}
н/о н/о +15.6 +13.6 88 +15 +15 1012.3 1009.5
20 13.07 ЮВ 4
{6}
н/о н/о +15.5 +13.5 88 +14 +14 1012.5 1009.7
21 13.07 Ю 5
{7}
н/о н/о +15.3 +13.4 88 +14 +14 1012.7 1009.9
22 13.07 Ю 4
{7}
н/о н/о +14.7 +12.7 88 +13 +13 1013.3 1010.4
23 13.07 ЮЗ 3
{6}
н/о н/о +14.9 +12.8 87 +14 +14 1013.5 1010.7
00 14.07 Ю 4
{7}
н/о н/о +15.0 +12.9 87 +14 +14 1013.5 1010.7
01 14.07 ЮЗ 4
{6}
н/о н/о +14.8 +13.0 89 +14 +14 1013.9 1011.1
02 14.07 Ю 3
{4}
н/о н/о +14.9 +13.0 88 +14 +14 1013.8 1011.0
03 14.07 Ю 2
{5}
н/о н/о +14.9 +13.0 88 +15 +15 1014.0 1011.2
04 14.07 ЮЗ 2
{4}
н/о н/о +14.8 +12.8 88 +14 +14 1014.2 1011.4
05 14.07 Ю 2
{4}
н/о н/о +14.9 +12.7 87 +15 +15 1014.1 1011.3
06 14.07 Ю 2
{4}
н/о н/о +14.8 +12.4 86 +14 +14 1014.3 1011.5 +14.4 +16.0
07 14.07 Ю 2
{3}
н/о н/о +14.9 +12.3 84 +15 +15 1014.6 1011.8
08 14.07 Ю 2
{4}
н/о н/о +15.2 +12.3 83 +15 +15 1014.9 1012.1
09 14.07 ЮВ 1
{4}
н/о н/о +15.6 +13.0 85 +16 +16 1015.2 1012.4
10 14.07 Ю 3
{4}
н/о н/о +15.8 +12.6 81 +15 +15 1015.2 1012.4
11 14.07 Ю 2
{4}
н/о н/о +16.8 +12.7 77 +17 +17 1015.3 1012.5
12 14.07 Ю 3
{4}
н/о н/о +16.7 +13.0 79 +16 +16 1015.1 1012.3
13 14.07 Ю 3
{5}
н/о н/о +16.9 +12.8 77 +17 +17 1014.9 1012.1
14 14.07 Ю 2
{3}
н/о н/о +17.1 +13.1 77 +17 +17 1014.5 1011.7
15 14.07 ЮЗ 3
{4}
н/о н/о +17.6 +13.8 78 +18 +18 1014.4 1011.6
16 14.07 Ю 4
{7}
н/о н/о +16.5 +13.2 81 +16 +16 1014.1 1011.3
17 14.07 Ю 4
{7}
н/о н/о +16.0 +13.1 83 +15 +15 1014.0 1011.2
18 14.07 Ю 6
{7}
н/о н/о +15.8 +12.9 83 +14 +14 1013.6 1010.8 +14.7 +17.9
19 14.07 Ю 6
{8}
н/о н/о +16.0 +13.4 85 +15 +15 1013.3 1010.5
20 14.07 Ю 7
{9}
н/о н/о +16.0 +14.1 88 +14 +14 1013.3 1010.5
21 14.07 Ю 7
{9}
н/о н/о +16.0 +14.3 90 +14 +14 1013.1 1010.3
22 14.07 Ю 5
{8}
н/о н/о +16.1 +14.0 87 +15 +15 1013.0 1010.2
23 14.07 Ю 6
{7}
н/о н/о +16.3 +14.5 89 +15 +15 1012.6 1009.8
00 15.07 Ю 5
{7}
н/о н/о +16.4 +14.8 90 +15 +15 1012.6 1009.8
01 15.07 ЮЗ 5
{6}
н/о н/о +16.2 +14.8 91 +15 +15 1012.4 1009.6
02 15.07 Ю 3
{6}
н/о н/о +16.1 +14.8 92 +16 +16 1011.9 1009.1
03 15.07 ЮЗ 5
{6}
н/о н/о +15.3 +14.3 94 +14 +14 1011.5 1008.7
04 15.07 ЮЗ 5
{6}
н/о н/о +14.8 +14.7 99 +13 +13 1011.2 1008.4
05 15.07 З 4
{6}
н/о н/о +14.4 +13.9 97 +13 +13 1010.9 1008.1
06 15.07 З 5
{6}
н/о н/о +14.2 +13.8 97 +12 +12 1010.8 1007.9 +14.2 +16.5
07 15.07 З 3
{6}
н/о н/о +14.2 +13.8 97 +13 +13 1010.6 1007.8
08 15.07 З 3
{5}
н/о н/о +14.2 +13.0 92 +13 +13 1010.9 1008.1
09 15.07 Ю 3
{5}
н/о н/о +13.7 +13.0 96 +12 +12 1010.9 1008.1
10 15.07 Ю 2
{4}
н/о н/о +14.2 +12.8 91 +14 +14 1011.1 1008.3
11 15.07 Ю 1
{3}
н/о н/о +14.2 +13.5 96 +14 +14 1011.2 1008.3
12 15.07 СВ 7
{9}
н/о н/о +15.7 +12.3 80 +14 +14 1011.2 1008.4
13 15.07 С 7
{10}
н/о н/о +16.4 +10.8 69 +15 +15 1011.3 1008.5
14 15.07 СВ 6
{9}
н/о н/о +17.3 +9.7 61 +17 +17 1011.4 1008.6
15 15.07 С 3
{7}
н/о н/о +18.0 +10.4 61 +18 +18 1011.3 1008.6
16 15.07 В 3
{5}
н/о н/о +18.1 +8.9 55 +18 +18 1011.0 1008.2
17 15.07 ЮВ 1
{3}
н/о н/о +18.8 +8.0 49 +20 +20 1010.5 1007.7
18 15.07 ЮЗ 5
{6}
н/о н/о +17.1 +11.7 71 +16 +16 1010.2 1007.4 +13.7 +18.8
19 15.07 ЮЗ 8
{9}
н/о н/о +16.4 +13.3 82 +15 +15 1010.4 1007.6
20 15.07 ЮЗ 9
{11}
н/о н/о +16.1 +13.7 86 +14 +14 1010.4 1007.6
21 15.07 З 7
{10}
н/о н/о +15.8 +13.2 85 +14 +14 1010.4 1007.6
22 15.07 З 6
{9}
н/о н/о +15.3 +13.0 86 +14 +14 1011.3 1008.5
23 15.07 ЮЗ 5
{6}
н/о н/о +16.0 +12.8 81 +15 +15 1010.6 1007.8
00 16.07 С 4
{6}
н/о н/о +15.6 +13.5 87 +15 +15 1011.2 1008.4
01 16.07 В 5
{6}
н/о н/о +14.8 +12.8 88 +13 +13 1010.9 1008.1
02 16.07 ЮВ 1
{5}
н/о н/о +14.7 +12.4 86 +15 +15 1011.0 1008.1
03 16.07 С 3
{5}
н/о н/о +14.7 +12.6 87 +14 +14 1011.0 1008.2
04 16.07 С 7
{10}
н/о н/о +14.6 +9.9 73 +13 +13 1011.0 1008.2
05 16.07 С 10
{12}
н/о н/о +14.5 +8.6 68 +12 +12 1011.0 1008.2
06 16.07 С 10
{14}
н/о н/о +14.5 +7.7 64 +12 +12 1011.5 1008.7 +14.3 +17.2
07 16.07 С 9
{12}
н/о н/о +14.6 +6.6 59 +12 +12 1011.5 1008.7
08 16.07 С 10
{16}
н/о н/о +15.1 +7.9 62 +13 +13 1011.3 1008.5
09 16.07 С 7
{14}
н/о н/о +15.3 +7.2 58 +14 +14 1011.4 1008.6
10 16.07 С 9
{13}
н/о н/о +16.0 +7.7 58 +14 +14 1011.3 1008.5
11 16.07 С 10
{13}
н/о н/о +16.5 +8.3 58 +15 +15 1011.2 1008.4
12 16.07 СЗ 9
{13}
н/о н/о +17.0 +9.7 62 +16 +16 1011.2 1008.5
13 16.07 СЗ 10
{12}
н/о н/о +17.4 +10.4 63 +16 +16 1011.5 1008.7
14 16.07 СЗ 9 н/о н/о +18.1 +10.5 61 +17 +17 1011.6 1008.8
15 16.07 СЗ 8
{10}
н/о н/о +18.7 +10.5 59 +18 +18 1011.6 1008.8
16 16.07 СЗ 8
{10}
н/о н/о +18.9 +11.7 63 +19 +19 1011.7 1008.9
17 16.07 З 9
{11}
н/о н/о +17.5 +12.5 72 +16 +16 1011.7 1008.9
18 16.07 З 9
{11}
н/о н/о +17.4 +13.8 79 +16 +16 1012.0 1009.2 +14.4 +19.0
19 16.07 СЗ 6
{10}
н/о н/о +17.1 +14.1 83 +16 +16 1012.4 1009.6
20 16.07 СЗ 4
{7}
н/о н/о +17.0 +14.1 83 +17 +17 1013.1 1010.3
21 16.07 З 5
{7}
н/о н/о +16.7 +14.6 87 +16 +16 1013.4 1010.6
22 16.07 СЗ 3
{6}
н/о н/о +16.7 +14.9 89 +16 +16 1013.6 1010.8
23 16.07 СЗ 3
{4}
н/о н/о +16.6 +14.7 89 +16 +16 1013.7 1010.9
00 17.07 С 2
{4}
н/о н/о +16.4 +14.6 89 +16 +16 1013.9 1011.1
01 17.07 СВ 2
{3}
н/о н/о +16.3 +14.9 91 +16 +16 1013.8 1011.0
02 17.07 В 2
{3}
н/о н/о +16.1 +14.9 93 +16 +16 1013.6 1010.8
03 17.07 В 3
{3}
н/о н/о +16.1 +14.9 93 +16 +16 1013.3 1010.5
04 17.07 ЮВ 2
{3}
н/о н/о +16.4 +14.0 86 +16 +16 1013.3 1010.5
05 17.07 ЮВ 2
{3}
н/о н/о +16.5 +13.6 83 +17 +17 1013.3 1010.5
06 17.07 ЮВ 3
{3}
н/о н/о +16.8 +11.7 72 +17 +17 1013.4 1010.6 +15.8 +17.5
07 17.07 Ю 4
{4}
н/о н/о +17.5 +12.9 74 +17 +17 1013.6 1010.8
08 17.07 Ю 5
{6}
н/о н/о +17.6 +11.2 66 +17 +17 1013.5 1010.7
09 17.07 Ю 5
{7}
н/о н/о +17.7 +14.3 80 +17 +17 1013.5 1010.7
10 17.07 ЮЗ 5 н/о н/о +17.1 +14.6 85 +16 +16 1013.5 1010.7
11 17.07 ЮЗ 6
{7}
н/о н/о +17.0 +13.4 79 +16 +16 1013.5 1010.7
12 17.07 ЮЗ 6
{7}
н/о н/о +17.4 +13.2 76 +17 +17 1013.7 1010.9
13 17.07 ЮЗ 6
{8}
н/о н/о +17.2 +13.2 77 +16 +16 1013.5 1010.7
14 17.07 ЮЗ 6
{7}
н/о н/о +17.2 +12.9 76 +16 +16 1013.3 1010.5
15 17.07 ЮЗ 6
{7}
н/о н/о +17.5 +13.0 75 +17 +17 1012.9 1010.1
16 17.07 ЮЗ 7 н/о н/о +16.8 +12.1 74 +16 +16 1012.6 1009.8
17 17.07 ЮЗ 7 н/о н/о +16.6 +13.3 81 +15 +15 1012.3 1009.5
18 17.07 ЮЗ 7
{9}
н/о н/о +16.6 +12.9 79 +15 +15 1012.3 1009.5 +16.3 +18.0
19 17.07 ЮЗ 5 н/о н/о +16.4 +12.0 75 +15 +15 1012.4 1009.6
20 17.07 ЮЗ 3 н/о н/о +16.3 +12.9 80 +16 +16 1012.3 1009.5
21 17.07 ЮЗ 4
{5}
н/о н/о +16.4 +12.5 78 +16 +16 1012.1 1009.3
22 17.07 ЮЗ 5 н/о н/о +16.2 +12.9 81 +15 +15 1012.1 1009.3
23 17.07 ЮЗ 6 н/о н/о +15.9 +13.0 83 +15 +15 1012.0 1009.2

 

Местоположение метеостанции Вадероарна (Швеция): широта 58.58 долгота 11.07 высота над уровнем моря 24 м.

В архиве по умолчанию представлена погода на Вадероарна за последнюю неделю. Архивные данные за месяц целиком и за предыдущие месяцы, начиная с января 2011 года, Вы можете получить, выбрав интересующий диапазон дат из раскрывающегося списка и нажав кнопку "Ввод!".


*Определитесь, кто Вы:
робот инопланетянин человек

Внимание! Время в таблицах - всемирное. Для получения местного времени необходимо прибавить поправку, которая равна 1 ч.

Смотрите также архив погоды в соседних городах и на ближайших метеорологических станциях:

Погода в Худе (Швеция) (22 км)
Погода в Нордкостере (Швеция) (36 км)
Погода на Маяке Maseskar (Швеция) (56 км)
Погода на Маяке Ferder (Норвегия) (59 км)
Погода на Маяке Stromtangen (Норвегия) (65 км)
Погода в Кроппефял-Гранане (Швеция) (66 км)
Погода на Маяке Svenner (Норвегия) (69 км)
Погода в Торпаброне (Швеция) (77 км)
Погода в Сарпсборге (Норвегия) (78 км)
Погода в Бергаруде (Швеция) (78 км)

Пояснения к столбцам:

Ветер - указаны скорость ветра в м/с - средняя за 10 мин, порывы в срок и между сроками (в фигурных скобках) и направление, откуда дует ветер: С - северный, СВ - северо-восточный, В - восточный, ЮВ - юго-восточный, Ю - южный, ЮЗ - юго-западный, З - западный, СЗ - северо-западный.
Видимость - горизонтальная дальность видимости в метрах или километрах. При видимости от 1 до 10 км при отсутствии осадков обычно наблюдается дымка, при ухудшении видимости до 1 км и менее - туман. В сухую погоду видимость может ухудшаться дымом, пылью или мглою.
Явления - указаны атмосферные явления, наблюдавшиеся в срок или в последний час перед сроком; фигурными скобками обозначены явления, наблюдавшиеся между сроками (за 1-3 часа до срока); квадратными скобками обозначены град или гололедные отложения с указанием их диаметра в мм.
Облачность - указаны через наклонную черту общая и нижняя облачность в баллах и высота нижней границы облаков в метрах; квадратными скобками обозначены формы облаков: Ci - перистые, Cs - перисто-слоистые, Cc - перисто-кучевые, Ac - высококучевые, As - высокослоистые, Sc - слоисто-кучевые, Ns - слоисто-дождевые, Cu - кучевые, Cb - кучево-дождевые. Подробнее классификацию облаков см. в Атласе облаков (PDF).
T - Температура воздуха - температура, измеренная на высоте 2 м над землей.
Td - Температура точки росы - температура, при понижении до которой содержащийся в воздухе водяной пар достигнет насыщения.
f - Относительная влажность воздуха - влажноcть воздуха, измеренная на высоте 2 м над землей.
Te - Эффективная температура - температура, которую ощущает одетый по сезону человек в тени. Характеристика душности погоды. При расчете учитывается влияние влажности воздуха и скорости ветра на теплоощущения человека.
Tes - Эффективная температура на солнце - температура, которую ощущает человек, с поправкой на солнечный нагрев. Характеристика знойности погоды. Зависит от высоты солнца над горизонтом, облачности и скорости ветра. Ночью, в пасмурную погоду, а также при ветре 12 м/с и более поправка равна нулю.
P - Атмосферное давление - приведенное к уровню моря атмосферное давление.
Po - Атмосферное давление - измеренное на уровне метеостанции атмосферное давление.
Tmin - Минимальная температура - минимум температуры воздуха на высоте 2 м над землей.
Tmax - Максимальная температура - максимум температуры воздуха на высоте 2 м над землей.
R - Количество осадков - Количество выпавших осадков за период времени, мм. При наведении курсора мыши на число - период времени, за который выпало указанное количество осадков.
R24 - Количество осадков - Количество выпавших осадков за 24 часа, мм.
S - Снежный покров - Высота снежного покрова, см. При наведении курсора мыши на число - состояние снежного покрова и степень покрытия местности в баллах.